Location: Bluff Heights
(33.7692°N, 118.1592°W)
Time: 18:12:37
(UTC+00:00)

Vanguard 1 Rocket - Pass Details

Date: 27 September 2021
Orbit: 650 x 4226 km, 34.3° (Epoch: 22 October)

Event Time Altitude Azimuth Distance (km) Brightness Sun altitude
Exits shadow 08:51:56 16° 125° (SE) 5,025 11.0 -54.2°
Drops below altitude 10° 08:54:31 10° 123° (ESE) 5,763 11.4 -54.0°
Sets 09:00:15 0° 121° (ESE) 7,322 12.0 -53.3°
